This is the latest recevied weather packets stored in our database for station/object WW5JC. If no packets are shown the sender has not sent any weather packets the latest 1 day(s).
| Time | Temp. | Humidity | Pressure | Rain* | Wind** | Luminosity | Snow |
|---|---|---|---|---|---|---|---|
| 1778003696 | 25.56° C | 81% | 1007.2 hPa | 0 mm | 4.47 m/s, 178° | 277 W/m² | - |
| 1778003394 | 25.56° C | 80% | 1007 hPa | 0 mm | 2.68 m/s, 277° | 552 W/m² | - |
| 1778003091 | 25.56° C | 80% | 1006.9 hPa | 0 mm | 4.92 m/s, 189° | 594 W/m² | - |
| 1778002787 | 25° C | 81% | 1006.5 hPa | 0 mm | 4.47 m/s, 148° | 380 W/m² | - |
| 1778002483 | 25° C | 81% | 1006.3 hPa | 0 mm | 3.13 m/s, 170° | 455 W/m² | - |
| 1778002180 | 25° C | 83% | 1006.2 hPa | 0 mm | 3.13 m/s, 168° | 437 W/m² | - |
| 1778001879 | 24.44° C | 84% | 1006.3 hPa | 0 mm | 1.79 m/s, 136° | 327 W/m² | - |
| 1778001578 | 24.44° C | 83% | 1007.1 hPa | 0 mm | 5.36 m/s, 230° | 285 W/m² | - |
| 1778001275 | 24.44° C | 83% | 1007.5 hPa | 0 mm | 4.92 m/s, 180° | 263 W/m² | - |
| 1778000972 | 24.44° C | 83% | 1007.6 hPa | 0 mm | 3.58 m/s, 201° | 220 W/m² | - |
| 1778000668 | 24.44° C | 83% | 1007.3 hPa | 0 mm | 3.58 m/s, 189° | 265 W/m² | - |
| 1778000364 | 24.44° C | 82% | 1007.3 hPa | 0 mm | 4.47 m/s, 226° | 287 W/m² | - |
| 1778000060 | 24.44° C | 82% | 1007.1 hPa | 0 mm | 5.81 m/s, 199° | 286 W/m² | - |
| 1777999755 | 24.44° C | 82% | 1007.1 hPa | 0 mm | 4.92 m/s, 197° | 312 W/m² | - |
| 1777999452 | 23.89° C | 84% | 1006.9 hPa | 0 mm | 4.92 m/s, 196° | 292 W/m² | - |
| 1777999150 | 23.89° C | 85% | 1007.1 hPa | 0 mm | 2.24 m/s, 214° | 225 W/m² | - |
| 1777998849 | 23.89° C | 85% | 1006.8 hPa | 0 mm | 2.24 m/s, 243° | 184 W/m² | - |
| 1777998548 | 23.89° C | 84% | 1007.1 hPa | 0 mm | 4.02 m/s, 219° | 191 W/m² | - |
| 1777998243 | 23.89° C | 85% | 1006.9 hPa | 0 mm | 3.13 m/s, 189° | 238 W/m² | - |
| 1777997940 | 23.89° C | 85% | 1006.7 hPa | 0 mm | 3.58 m/s, 207° | 232 W/m² | - |
| 1777997637 | 23.33° C | 85% | 1007 hPa | 0 mm | 2.24 m/s, 200° | 198 W/m² | - |
| 1777997334 | 23.33° C | 85% | 1006.9 hPa | 0 mm | 4.47 m/s, 201° | 189 W/m² | - |
| 1777997032 | 23.33° C | 86% | 1006.8 hPa | 0 mm | 4.02 m/s, 200° | 154 W/m² | - |
| 1777996729 | 23.33° C | 86% | 1006.8 hPa | 0 mm | 4.92 m/s, 182° | 178 W/m² | - |
| 1777996424 | 23.33° C | 86% | 1007 hPa | 0 mm | 4.92 m/s, 219° | 192 W/m² | - |
* Rain latest hour (hover to see other rain measurements)
** Current wind speed in m/s (hover to see current wind gust speed)